^^
Your Local Weather - Clay, NY Station Historical Data
Daily Summary for April 22, 2017 Units:  Metric    English   Both
« Previous Day
Next Day »
Daily Weekly Monthly Yearly Custom
  High: Low: Average:
Temperature: 9.9 °C 2.2 °C 7.2 °C
Dew Point: 5.2 °C 0.4 °C 2.8 °C
Humidity: 88% 59% 74%
Wind Speed: 8km/h 0km/h 3.2km/h
Wind Gust: 12.9km/h - -
Wind- - WNW
Pressure: 1017.8 hPa 1013.1 hPa -
Precipitation: 0 mm    
Historical Graphs
 
 
Tabular Data for April 22, 2017
Time Temperature Dew Point Pressure Wind Wind Speed Wind Gust Humidity Rainfall Rate (Hourly) solar
00:04 9.2 °C 5 °C 1013.4 hPa West 3.2 km/h 6.4 km/h 75% 0 mm 0 W/m2
00:10 9.2 °C 5 °C 1013.8 hPa WSW 3.2 km/h 3.2 km/h 75% 0 mm 0 W/m2
00:16 9.2 °C 5.2 °C 1013.4 hPa NW 1.6 km/h 4.8 km/h 76% 0 mm 0 W/m2
00:22 9.1 °C 5.1 °C 1013.4 hPa WSW 1.6 km/h 1.6 km/h 76% 0 mm 0 W/m2
00:28 9.1 °C 4.8 °C 1013.8 hPa NW 3.2 km/h 4.8 km/h 75% 0 mm 0 W/m2
00:34 9.1 °C 4.8 °C 1013.8 hPa WNW 4.8 km/h 6.4 km/h 75% 0 mm 0 W/m2
00:40 9 °C 4.8 °C 1013.8 hPa West 3.2 km/h 3.2 km/h 75% 0 mm 0 W/m2
00:46 8.9 °C 4.9 °C 1013.8 hPa WNW 1.6 km/h 4.8 km/h 76% 0 mm 0 W/m2
00:52 8.9 °C 4.7 °C 1013.8 hPa WSW 3.2 km/h 6.4 km/h 75% 0 mm 0 W/m2
00:58 8.8 °C 4.7 °C 1013.4 hPa WNW 4.8 km/h 6.4 km/h 75% 0 mm 0 W/m2
01:04 8.8 °C 4.4 °C 1013.8 hPa NW 4.8 km/h 4.8 km/h 74% 0 mm 0 W/m2
01:10 8.8 °C 4.4 °C 1013.8 hPa WNW 4.8 km/h 6.4 km/h 74% 0 mm 0 W/m2
01:16 8.7 °C 4.3 °C 1013.8 hPa WNW 3.2 km/h 11.3 km/h 74% 0 mm 0 W/m2
01:22 8.6 °C 4.1 °C 1013.8 hPa WNW 4.8 km/h 6.4 km/h 73% 0 mm 0 W/m2
01:28 8.6 °C 4 °C 1013.8 hPa NW 4.8 km/h 8 km/h 73% 0 mm 0 W/m2
01:34 8.4 °C 3.9 °C 1013.8 hPa WNW 1.6 km/h 6.4 km/h 73% 0 mm 0 W/m2
01:40 8.3 °C 3.6 °C 1013.8 hPa NW 3.2 km/h 3.2 km/h 72% 0 mm 0 W/m2
01:46 8.3 °C 3.3 °C 1013.8 hPa WNW 4.8 km/h 6.4 km/h 71% 0 mm 0 W/m2
01:52 8.2 °C 3.3 °C 1013.8 hPa WNW 3.2 km/h 8 km/h 71% 0 mm 0 W/m2
01:58 8.2 °C 3.4 °C 1013.8 hPa WNW 4.8 km/h 9.7 km/h 72% 0 mm 0 W/m2
02:04 8.1 °C 3.3 °C 1013.8 hPa WNW 4.8 km/h 8 km/h 72% 0 mm 0 W/m2
02:10 7.9 °C 3.2 °C 1013.4 hPa WNW 3.2 km/h 3.2 km/h 72% 0 mm 0 W/m2
02:16 7.9 °C 3.3 °C 1013.4 hPa NW 3.2 km/h 4.8 km/h 73% 0 mm 0 W/m2
02:22 7.8 °C 3.4 °C 1013.4 hPa WNW 1.6 km/h 4.8 km/h 74% 0 mm 0 W/m2
02:28 7.8 °C 3.4 °C 1013.4 hPa WNW 1.6 km/h 4.8 km/h 74% 0 mm 0 W/m2
02:34 7.7 °C 3.6 °C 1013.4 hPa WNW 1.6 km/h 4.8 km/h 75% 0 mm 0 W/m2
02:40 7.7 °C 3.5 °C 1013.4 hPa WNW 3.2 km/h 3.2 km/h 75% 0 mm 0 W/m2
02:46 7.6 °C 3.4 °C 1013.4 hPa WNW 4.8 km/h 6.4 km/h 75% 0 mm 0 W/m2
02:52 7.5 °C 3.6 °C 1013.4 hPa WNW 3.2 km/h 4.8 km/h 76% 0 mm 0 W/m2
02:58 7.4 °C 3.4 °C 1013.1 hPa WNW 3.2 km/h 4.8 km/h 76% 0 mm 0 W/m2
03:04 7.3 °C 3.5 °C 1013.4 hPa WNW 3.2 km/h 8 km/h 77% 0 mm 0 W/m2
03:10 7.2 °C 3.6 °C 1013.4 hPa WNW 1.6 km/h 1.6 km/h 78% 0 mm 0 W/m2
03:16 7.1 °C 3.7 °C 1013.4 hPa NW 1.6 km/h 4.8 km/h 79% 0 mm 0 W/m2
03:22 7 °C 3.6 °C 1013.4 hPa NW 3.2 km/h 3.2 km/h 79% 0 mm 0 W/m2
03:28 6.9 °C 3.6 °C 1013.4 hPa NW 1.6 km/h 3.2 km/h 79% 0 mm 0 W/m2
03:34 6.9 °C 3.5 °C 1013.4 hPa WNW 1.6 km/h 3.2 km/h 79% 0 mm 0 W/m2
03:40 6.9 °C 3.5 °C 1013.4 hPa WNW 1.6 km/h 1.6 km/h 79% 0 mm 0 W/m2
03:46 6.8 °C 3.6 °C 1013.4 hPa WNW 1.6 km/h 1.6 km/h 80% 0 mm 0 W/m2
03:52 6.8 °C 3.4 °C 1013.4 hPa Calm   3.2 km/h 79% 0 mm 0 W/m2
03:58 6.8 °C 3.4 °C 1013.4 hPa West 1.6 km/h 3.2 km/h 79% 0 mm 0 W/m2
04:04 6.8 °C 3 °C 1013.4 hPa WNW 3.2 km/h 4.8 km/h 77% 0 mm 0 W/m2
04:10 6.8 °C 3 °C 1013.4 hPa West 3.2 km/h 3.2 km/h 77% 0 mm 0 W/m2
04:16 6.7 °C 2.9 °C 1013.4 hPa Calm   3.2 km/h 77% 0 mm 0 W/m2
04:22 6.7 °C 2.9 °C 1013.4 hPa WNW 1.6 km/h 3.2 km/h 77% 0 mm 0 W/m2
04:28 6.7 °C 2.7 °C 1013.4 hPa West 1.6 km/h 3.2 km/h 76% 0 mm 0 W/m2
04:34 6.7 °C 2.6 °C 1013.4 hPa WNW 1.6 km/h 3.2 km/h 75% 0 mm 0 W/m2
04:40 6.6 °C 2.3 °C 1013.4 hPa NW 1.6 km/h 1.6 km/h 74% 0 mm 0 W/m2
04:46 6.6 °C 2.3 °C 1013.4 hPa NW 1.6 km/h 3.2 km/h 74% 0 mm 0 W/m2
04:58 6.5 °C 2.4 °C 1013.1 hPa Calm   1.6 km/h 75% 0 mm 0 W/m2
05:04 6.4 °C 2.3 °C 1013.4 hPa WNW 1.6 km/h 3.2 km/h 75% 0 mm 0 W/m2
05:10 6.4 °C 2.1 °C 1013.4 hPa NW 1.6 km/h 3.2 km/h 74% 0 mm 0 W/m2
05:16 6.4 °C 2.3 °C 1013.4 hPa WNW 3.2 km/h 6.4 km/h 75% 0 mm 0 W/m2
05:22 6.3 °C 2.2 °C 1013.4 hPa NW 3.2 km/h 4.8 km/h 75% 0 mm 0 W/m2
05:28 6.3 °C 2.2 °C 1013.4 hPa NW 4.8 km/h 6.4 km/h 75% 0 mm 0 W/m2
05:34 6.3 °C 2.2 °C 1013.4 hPa WNW 4.8 km/h 4.8 km/h 75% 0 mm 0 W/m2
05:40 6.2 °C 2.1 °C 1013.8 hPa NNW 3.2 km/h 9.7 km/h 75% 0 mm 0 W/m2
05:46 6.2 °C 2.2 °C 1013.8 hPa WNW 3.2 km/h 9.7 km/h 76% 0 mm 0 W/m2
05:52 6.2 °C 2.2 °C 1013.8 hPa West 4.8 km/h 4.8 km/h 76% 0 mm 0 W/m2
05:58 6.1 °C 2.2 °C 1013.8 hPa WNW 4.8 km/h 6.4 km/h 76% 0 mm 0 W/m2
06:04 6.1 °C 2.2 °C 1013.8 hPa NW 4.8 km/h 4.8 km/h 76% 0 mm 0 W/m2
06:10 6.1 °C 2.2 °C 1013.8 hPa NW 4.8 km/h 4.8 km/h 76% 0 mm 0 W/m2
06:16 6 °C 2.1 °C 1013.8 hPa WNW 4.8 km/h 4.8 km/h 76% 0 mm 0 W/m2
06:22 6 °C 2.3 °C 1013.8 hPa WNW 3.2 km/h 4.8 km/h 77% 0 mm 0 W/m2
06:28 6 °C 2.1 °C 1014.1 hPa WNW 3.2 km/h 4.8 km/h 76% 0 mm 0 W/m2
06:34 6 °C 2.3 °C 1014.1 hPa NW 3.2 km/h 3.2 km/h 77% 0 mm 0 W/m2
06:46 6 °C 2.3 °C 1014.4 hPa SW 1.6 km/h 3.2 km/h 77% 0 mm 9 W/m2
06:52 6 °C 2.3 °C 1014.1 hPa WNW 3.2 km/h 4.8 km/h 77% 0 mm 14 W/m2
06:58 6 °C 2.3 °C 1014.4 hPa WNW 3.2 km/h 4.8 km/h 77% 0 mm 18 W/m2
07:04 6.1 °C 2.3 °C 1014.4 hPa NW 3.2 km/h 3.2 km/h 77% 0 mm 16 W/m2
07:10 6.1 °C 2.3 °C 1014.4 hPa WNW 3.2 km/h 3.2 km/h 77% 0 mm 19 W/m2
07:16 6.1 °C 2.3 °C 1014.4 hPa North 3.2 km/h 8 km/h 77% 0 mm 19 W/m2
07:22 6.1 °C 2.3 °C 1014.8 hPa NW 3.2 km/h 4.8 km/h 77% 0 mm 19 W/m2
07:28 6.1 °C 2.4 °C 1014.8 hPa NW 3.2 km/h 6.4 km/h 77% 0 mm 21 W/m2
07:34 6.1 °C 2.4 °C 1014.4 hPa WNW 3.2 km/h 4.8 km/h 77% 0 mm 19 W/m2
07:40 6.1 °C 2.4 °C 1014.4 hPa WNW 3.2 km/h 3.2 km/h 77% 0 mm 37 W/m2
07:46 6.1 °C 2.4 °C 1014.8 hPa West 3.2 km/h 3.2 km/h 77% 0 mm 46 W/m2
07:52 6.2 °C 2.4 °C 1014.8 hPa NW 3.2 km/h 3.2 km/h 77% 0 mm 53 W/m2
07:58 6.2 °C 2.5 °C 1014.8 hPa NW 3.2 km/h 3.2 km/h 77% 0 mm 60 W/m2
08:04 6.3 °C 2.6 °C 1015.1 hPa SW 3.2 km/h 4.8 km/h 77% 0 mm 53 W/m2
08:10 6.3 °C 2.6 °C 1015.1 hPa West 3.2 km/h 4.8 km/h 77% 0 mm 49 W/m2
08:16 6.3 °C 2.6 °C 1014.8 hPa WNW 3.2 km/h 4.8 km/h 77% 0 mm 58 W/m2
08:22 6.3 °C 2.6 °C 1014.8 hPa NW 3.2 km/h 4.8 km/h 77% 0 mm 72 W/m2
08:28 6.3 °C 2.6 °C 1014.8 hPa WSW 3.2 km/h 4.8 km/h 77% 0 mm 84 W/m2
08:34 6.4 °C 2.7 °C 1014.4 hPa WSW 3.2 km/h 3.2 km/h 77% 0 mm 90 W/m2
08:40 6.5 °C 2.8 °C 1014.4 hPa SW 3.2 km/h 6.4 km/h 77% 0 mm 91 W/m2
08:46 6.5 °C 2.8 °C 1014.4 hPa West 3.2 km/h 6.4 km/h 77% 0 mm 102 W/m2
08:52 6.6 °C 2.8 °C 1015.1 hPa WSW 3.2 km/h 4.8 km/h 77% 0 mm 109 W/m2
08:58 6.6 °C 2.9 °C 1015.1 hPa NW 3.2 km/h 6.4 km/h 77% 0 mm 81 W/m2
09:06 6.7 °C 2.9 °C 1015.1 hPa SW 1.6 km/h 3.2 km/h 77% 0 mm 62 W/m2
09:12 6.6 °C 2.7 °C 1015.1 hPa West 1.6 km/h 8 km/h 76% 0 mm 42 W/m2
09:18 6.6 °C 2.6 °C 1015.1 hPa WNW 4.8 km/h 8 km/h 76% 0 mm 37 W/m2
09:24 6.5 °C 2.6 °C 1015.1 hPa NW 4.8 km/h 4.8 km/h 76% 0 mm 49 W/m2
09:30 6.5 °C 2.6 °C 1015.1 hPa NW 3.2 km/h 3.2 km/h 76% 0 mm 83 W/m2
09:36 6.5 °C 2.8 °C 1015.1 hPa WNW 4.8 km/h 9.7 km/h 77% 0 mm 67 W/m2
09:42 6.6 °C 2.9 °C 1014.8 hPa SW 3.2 km/h 3.2 km/h 77% 0 mm 102 W/m2
09:48 6.6 °C 2.6 °C 1015.1 hPa West 3.2 km/h 3.2 km/h 76% 0 mm 130 W/m2
09:54 6.7 °C 2.6 °C 1015.1 hPa WSW 4.8 km/h 4.8 km/h 75% 0 mm 318 W/m2
10:00 7.3 °C 3 °C 1015.1 hPa SSW 3.2 km/h 6.4 km/h 74% 0 mm 278 W/m2
10:06 7.2 °C 2.7 °C 1015.1 hPa West 4.8 km/h 11.3 km/h 73% 0 mm 220 W/m2
10:12 7.2 °C 3.1 °C 1015.1 hPa WNW 6.4 km/h 6.4 km/h 75% 0 mm 218 W/m2
10:18 7.1 °C 3 °C 1015.1 hPa WNW 4.8 km/h 6.4 km/h 75% 0 mm 141 W/m2
10:26 7 °C 2.9 °C 1015.5 hPa West 4.8 km/h 8 km/h 75% 0 mm 251 W/m2
10:32 7.1 °C 3 °C 1015.5 hPa West 4.8 km/h 4.8 km/h 75% 0 mm 153 W/m2
10:38 7.1 °C 3.1 °C 1015.5 hPa West 4.8 km/h 9.7 km/h 76% 0 mm 190 W/m2
10:44 7 °C 2.9 °C 1015.5 hPa West 6.4 km/h 8 km/h 75% 0 mm 165 W/m2
10:50 6.8 °C 2.9 °C 1015.5 hPa WSW 8 km/h 8 km/h 76% 0 mm 181 W/m2
10:56 6.8 °C 3.1 °C 1015.5 hPa WNW 6.4 km/h 8 km/h 77% 0 mm 141 W/m2
11:02 6.8 °C 3.2 °C 1015.5 hPa WNW 4.8 km/h 9.7 km/h 78% 0 mm 156 W/m2
11:08 6.7 °C 3.2 °C 1015.5 hPa NW 4.8 km/h 9.7 km/h 78% 0 mm 171 W/m2
11:14 6.8 °C 3.4 °C 1015.5 hPa WNW 4.8 km/h 9.7 km/h 79% 0 mm 179 W/m2
11:20 6.8 °C 3.4 °C 1015.5 hPa WNW 4.8 km/h 4.8 km/h 79% 0 mm 204 W/m2
11:26 7.1 °C 3.7 °C 1015.5 hPa WNW 3.2 km/h 6.4 km/h 79% 0 mm 288 W/m2
11:32 7.4 °C 4 °C 1015.5 hPa WNW 3.2 km/h 8 km/h 79% 0 mm 225 W/m2
11:38 7.6 °C 3.9 °C 1015.5 hPa West 3.2 km/h 11.3 km/h 78% 0 mm 325 W/m2
11:44 7.7 °C 3.9 °C 1015.5 hPa WNW 4.8 km/h 8 km/h 77% 0 mm 373 W/m2
11:50 7.8 °C 3.9 °C 1015.5 hPa NW 4.8 km/h 4.8 km/h 76% 0 mm 195 W/m2
11:56 7.8 °C 3.9 °C 1015.5 hPa NW 3.2 km/h 11.3 km/h 76% 0 mm 234 W/m2
12:02 7.9 °C 3.9 °C 1015.5 hPa West 6.4 km/h 9.7 km/h 76% 0 mm 371 W/m2
12:08 8.1 °C 3.9 °C 1015.5 hPa NW 4.8 km/h 11.3 km/h 75% 0 mm 221 W/m2
12:14 8.2 °C 3.8 °C 1015.5 hPa WNW 4.8 km/h 6.4 km/h 74% 0 mm 369 W/m2
12:20 8.3 °C 3.9 °C 1015.1 hPa NW 4.8 km/h 4.8 km/h 74% 0 mm 207 W/m2
12:26 8.1 °C 3.9 °C 1015.1 hPa NW 4.8 km/h 6.4 km/h 75% 0 mm 195 W/m2
12:32 7.8 °C 3.7 °C 1015.1 hPa WNW 4.8 km/h 6.4 km/h 75% 0 mm 260 W/m2
12:38 7.9 °C 3.8 °C 1015.5 hPa NNW 6.4 km/h 6.4 km/h 75% 0 mm 285 W/m2
12:44 7.9 °C 3.9 °C 1015.5 hPa WNW 6.4 km/h 9.7 km/h 76% 0 mm 179 W/m2
12:49 7.4 °C 3.8 °C 1015.5 hPa NW 8 km/h 9.7 km/h 78% 0 mm 165 W/m2
13:02 7.2 °C 4 °C 1015.5 hPa WNW 6.4 km/h 8 km/h 80% 0 mm 302 W/m2
13:04 7.2 °C 4 °C 1015.5 hPa NNW 6.4 km/h 8 km/h 80% 0 mm 287 W/m2
13:10 7.3 °C 4.2 °C 1015.5 hPa NW 8 km/h 8 km/h 81% 0 mm 737 W/m2
13:16 7.8 °C 4.4 °C 1015.8 hPa West 8 km/h 11.3 km/h 79% 0 mm 267 W/m2
13:22 7.3 °C 3.9 °C 1015.8 hPa West 8 km/h 8 km/h 79% 0 mm 381 W/m2
13:28 7.6 °C 4.6 °C 1015.5 hPa West 6.4 km/h 12.9 km/h 81% 0 mm 424 W/m2
13:40 8.1 °C 4.3 °C 1015.5 hPa West 6.4 km/h 6.4 km/h 77% 0 mm 374 W/m2
13:46 7.9 °C 3.9 °C 1015.5 hPa WNW 6.4 km/h 6.4 km/h 76% 0 mm 417 W/m2
13:52 8.5 °C 4.5 °C 1015.5 hPa NNW 6.4 km/h 11.3 km/h 76% 0 mm 450 W/m2
13:58 8.4 °C 3.6 °C 1015.5 hPa WNW 6.4 km/h 11.3 km/h 72% 0 mm 464 W/m2
14:04 8.3 °C 3.4 °C 1015.5 hPa WNW 6.4 km/h 6.4 km/h 71% 0 mm 598 W/m2
14:10 8.6 °C 3.6 °C 1015.5 hPa NNE 8 km/h 8 km/h 71% 0 mm 181 W/m2
14:16 8.2 °C 3.4 °C 1015.8 hPa WNW 8 km/h 8 km/h 72% 0 mm 171 W/m2
14:22 7.9 °C 3.2 °C 1015.8 hPa NW 6.4 km/h 6.4 km/h 72% 0 mm 176 W/m2
14:28 7.9 °C 3.2 °C 1015.8 hPa NW 4.8 km/h 6.4 km/h 72% 0 mm 148 W/m2
14:34 7.9 °C 3.4 °C 1016.1 hPa NNW 4.8 km/h 4.8 km/h 73% 0 mm 156 W/m2
14:40 7.9 °C 2.9 °C 1016.1 hPa WNW 4.8 km/h 4.8 km/h 71% 0 mm 167 W/m2
14:46 7.9 °C 2.8 °C 1016.1 hPa WNW 4.8 km/h 8 km/h 70% 0 mm 213 W/m2
14:52 8.1 °C 3.3 °C 1015.8 hPa NW 4.8 km/h 6.4 km/h 72% 0 mm 251 W/m2
14:58 8.1 °C 2.9 °C 1015.8 hPa NW 6.4 km/h 8 km/h 70% 0 mm 274 W/m2
15:03 8.2 °C 2.8 °C 1015.8 hPa NNW 6.4 km/h 9.7 km/h 69% 0 mm 292 W/m2
15:10 8.2 °C 2.8 °C 1016.1 hPa WNW 6.4 km/h 6.4 km/h 69% 0 mm 295 W/m2
15:16 8.4 °C 3 °C 1016.1 hPa West 4.8 km/h 6.4 km/h 69% 0 mm 250 W/m2
15:22 8.4 °C 2.8 °C 1016.1 hPa NW 4.8 km/h 6.4 km/h 68% 0 mm 285 W/m2
15:28 8.3 °C 2.3 °C 1016.1 hPa NW 6.4 km/h 6.4 km/h 66% 0 mm 338 W/m2
15:34 8.4 °C 2.9 °C 1016.1 hPa NNW 6.4 km/h 11.3 km/h 68% 0 mm 378 W/m2
15:40 8.8 °C 3.2 °C 1015.8 hPa NNW 6.4 km/h 6.4 km/h 68% 0 mm 422 W/m2
15:46 8.8 °C 2.8 °C 1015.8 hPa NW 6.4 km/h 8 km/h 66% 0 mm 295 W/m2
15:52 8.8 °C 2.8 °C 1015.8 hPa West 6.4 km/h 12.9 km/h 66% 0 mm 236 W/m2
15:58 8.7 °C 2.7 °C 1015.8 hPa WNW 4.8 km/h 12.9 km/h 66% 0 mm 274 W/m2
16:04 8.8 °C 2.8 °C 1015.8 hPa NW 4.8 km/h 4.8 km/h 66% 0 mm 338 W/m2
16:10 8.8 °C 2.8 °C 1016.1 hPa NW 4.8 km/h 8 km/h 66% 0 mm 295 W/m2
16:16 8.9 °C 2.7 °C 1016.1 hPa NW 4.8 km/h 8 km/h 65% 0 mm 318 W/m2
16:28 9 °C 2.6 °C 1016.1 hPa WNW 4.8 km/h 6.4 km/h 64% 0 mm 323 W/m2
16:34 9.1 °C 2.4 °C 1016.1 hPa WNW 4.8 km/h 8 km/h 63% 0 mm 436 W/m2
16:40 9.1 °C 2.9 °C 1016.5 hPa West 4.8 km/h 4.8 km/h 65% 0 mm 373 W/m2
16:46 9.1 °C 2.4 °C 1016.5 hPa West 4.8 km/h 8 km/h 63% 0 mm 336 W/m2
16:52 9.1 °C 2.4 °C 1016.5 hPa WNW 4.8 km/h 4.8 km/h 63% 0 mm 297 W/m2
16:58 9.2 °C 2.6 °C 1016.5 hPa NW 4.8 km/h 4.8 km/h 63% 0 mm 359 W/m2
17:04 9.3 °C 2.9 °C 1016.5 hPa NNW 4.8 km/h 8 km/h 64% 0 mm 302 W/m2
17:10 9.2 °C 2.8 °C 1016.1 hPa NW 4.8 km/h 4.8 km/h 64% 0 mm 287 W/m2
17:16 9.2 °C 2.7 °C 1016.1 hPa NNW 4.8 km/h 4.8 km/h 64% 0 mm 315 W/m2
17:22 9.2 °C 2.3 °C 1016.1 hPa NNW 6.4 km/h 8 km/h 62% 0 mm 367 W/m2
17:28 9.4 °C 2.9 °C 1016.1 hPa West 4.8 km/h 8 km/h 64% 0 mm 401 W/m2
17:34 9.6 °C 2.8 °C 1016.1 hPa WNW 4.8 km/h 4.8 km/h 63% 0 mm 301 W/m2
17:40 9.8 °C 2.6 °C 1016.1 hPa WNW 4.8 km/h 4.8 km/h 61% 0 mm 209 W/m2
17:46 9.8 °C 2.6 °C 1016.1 hPa NNW 3.2 km/h 6.4 km/h 61% 0 mm 258 W/m2
17:52 9.9 °C 2.7 °C 1016.5 hPa WNW 3.2 km/h 4.8 km/h 61% 0 mm 190 W/m2
17:58 9.7 °C 2.3 °C 1016.5 hPa West 3.2 km/h 6.4 km/h 60% 0 mm 209 W/m2
18:04 9.7 °C 2.3 °C 1016.1 hPa WNW 4.8 km/h 9.7 km/h 60% 0 mm 146 W/m2
18:10 9.4 °C 2.5 °C 1016.1 hPa WNW 4.8 km/h 6.4 km/h 62% 0 mm 185 W/m2
18:16 9.6 °C 2.6 °C 1016.1 hPa WNW 4.8 km/h 6.4 km/h 62% 0 mm 199 W/m2
18:22 9.6 °C 2.2 °C 1016.1 hPa WNW 4.8 km/h 4.8 km/h 60% 0 mm 162 W/m2
18:28 9.7 °C 2.3 °C 1016.1 hPa NW 3.2 km/h 4.8 km/h 60% 0 mm 105 W/m2
18:34 9.7 °C 2.3 °C 1016.1 hPa NW 3.2 km/h 3.2 km/h 60% 0 mm 111 W/m2
18:40 9.7 °C 2.3 °C 1016.1 hPa WNW 3.2 km/h 6.4 km/h 60% 0 mm 102 W/m2
18:46 9.6 °C 2.2 °C 1016.1 hPa NNW 4.8 km/h 6.4 km/h 60% 0 mm 63 W/m2
18:52 9.6 °C 2.4 °C 1016.1 hPa WNW 1.6 km/h 4.8 km/h 61% 0 mm 69 W/m2
18:58 9.4 °C 1.8 °C 1016.1 hPa WNW 3.2 km/h 6.4 km/h 59% 0 mm 102 W/m2
19:04 9.3 °C 1.7 °C 1016.1 hPa WNW 3.2 km/h 3.2 km/h 59% 0 mm 30 W/m2
19:10 9.2 °C 2.1 °C 1016.1 hPa WNW 1.6 km/h 1.6 km/h 61% 0 mm 25 W/m2
19:16 8.9 °C 2.2 °C 1016.1 hPa Calm   1.6 km/h 63% 0 mm 62 W/m2
19:22 8.7 °C 1.8 °C 1016.1 hPa Calm     62% 0 mm 28 W/m2
19:28 8.7 °C 2 °C 1016.5 hPa Calm     63% 0 mm 26 W/m2
19:34 8.6 °C 1.9 °C 1016.5 hPa Calm   1.6 km/h 63% 0 mm 23 W/m2
19:40 8.4 °C 2 °C 1016.5 hPa Calm     64% 0 mm 11 W/m2
19:46 8.3 °C 1.9 °C 1016.5 hPa Calm     64% 0 mm 7 W/m2
19:52 8.2 °C 2 °C 1016.5 hPa Calm     65% 0 mm 5 W/m2
19:58 7.9 °C 2 °C 1016.5 hPa Calm     66% 0 mm 0 W/m2
20:06 7.7 °C 1.9 °C 1016.8 hPa Calm     67% 0 mm 0 W/m2
20:12 7.4 °C 2.1 °C 1016.8 hPa Calm     69% 0 mm 0 W/m2
20:18 7.2 °C 2.1 °C 1016.8 hPa Calm     70% 0 mm 0 W/m2
20:24 7.1 °C 1.9 °C 1016.8 hPa Calm     70% 0 mm 0 W/m2
20:30 6.8 °C 2.1 °C 1016.8 hPa Calm     72% 0 mm 0 W/m2
20:36 6.7 °C 2.2 °C 1017.2 hPa Calm     73% 0 mm 0 W/m2
20:42 6.4 °C 2.1 °C 1017.2 hPa Calm     74% 0 mm 0 W/m2
20:48 6.2 °C 2.1 °C 1017.2 hPa Calm     75% 0 mm 0 W/m2
20:54 6 °C 1.9 °C 1017.2 hPa Calm     75% 0 mm 0 W/m2
21:00 5.8 °C 1.9 °C 1017.2 hPa Calm     76% 0 mm 0 W/m2
21:06 5.6 °C 1.7 °C 1017.2 hPa Calm     76% 0 mm 0 W/m2
21:12 5.5 °C 1.9 °C 1017.2 hPa Calm     78% 0 mm 0 W/m2
21:18 5.4 °C 2.4 °C 1017.2 hPa Calm     81% 0 mm 0 W/m2
21:24 5.3 °C 2.5 °C 1017.2 hPa Calm     82% 0 mm 0 W/m2
21:29 5.2 °C 2.3 °C 1017.5 hPa Calm     82% 0 mm 0 W/m2
21:36 5.1 °C 2.4 °C 1017.2 hPa Calm     83% 0 mm 0 W/m2
21:42 4.9 °C 2.4 °C 1017.5 hPa Calm     84% 0 mm 0 W/m2
21:48 4.9 °C 2.4 °C 1017.5 hPa Calm     84% 0 mm 0 W/m2
21:54 4.8 °C 2.5 °C 1017.5 hPa Calm     85% 0 mm 0 W/m2
22:00 4.7 °C 2.3 °C 1017.8 hPa Calm     85% 0 mm 0 W/m2
22:06 4.4 °C 2.2 °C 1017.8 hPa Calm     85% 0 mm 0 W/m2
22:12 4.2 °C 1.8 °C 1017.8 hPa Calm     84% 0 mm 0 W/m2
22:18 4.1 °C 1.8 °C 1017.8 hPa Calm     85% 0 mm 0 W/m2
22:24 3.9 °C 1.6 °C 1017.8 hPa Calm     85% 0 mm 0 W/m2
22:30 3.8 °C 1.6 °C 1017.8 hPa Calm     85% 0 mm 0 W/m2
22:36 3.7 °C 1.6 °C 1017.8 hPa Calm     86% 0 mm 0 W/m2
22:42 3.6 °C 1.5 °C 1017.8 hPa Calm     86% 0 mm 0 W/m2
22:48 3.5 °C 1.4 °C 1017.8 hPa Calm     86% 0 mm 0 W/m2
22:54 3.4 °C 1.5 °C 1017.8 hPa Calm     87% 0 mm 0 W/m2
23:00 3.4 °C 1.4 °C 1017.8 hPa Calm     87% 0 mm 0 W/m2
23:06 3.3 °C 1.4 °C 1017.8 hPa Calm     87% 0 mm 0 W/m2
23:12 3.3 °C 1.3 °C 1017.8 hPa Calm     87% 0 mm 0 W/m2
23:18 3.1 °C 1.2 °C 1017.5 hPa Calm     87% 0 mm 0 W/m2
23:24 3 °C 1.1 °C 1017.5 hPa Calm     87% 0 mm 0 W/m2
23:30 2.8 °C 1.1 °C 1017.5 hPa Calm     88% 0 mm 0 W/m2
23:36 2.7 °C 0.9 °C 1017.5 hPa Calm     88% 0 mm 0 W/m2
23:42 2.6 °C 0.8 °C 1017.5 hPa Calm     88% 0 mm 0 W/m2
23:48 2.4 °C 0.6 °C 1017.8 hPa Calm     88% 0 mm 0 W/m2
23:54 2.2 °C 0.4 °C 1017.8 hPa Calm     88% 0 mm 0 W/m2
Country Meadow, Clay, NY, USA
Compliments of Weather Underground - 2 mb